Wind_Speed
11 11 11 12 13 12 13 14 13 13 13 13 13 12 11 10 9 10 9 9 9 8 8 8 7 7 7 7 7 6 6 6 5 5 4 4 4 4 3 5 5 5 5 4 4 3 2 1 1
11 11 11 11 12 13 14 14 13 13 13 12 12 12 12 11 10 10 9 9 8 8 9 8 8 7 7 8 7 7 6 6 6 5 5 6 5 4 5 6 6 5 5 4 4 3 2 2 1
10 10 11 12 13 14 14 14 13 12 12 12 12 12 12 11 10 10 10 9 8 8 8 8 8 8 7 7 7 7 7 7 7 6 6 7 7 6 6 5 6 5 4 3 3 2 2 2 1
11 11 11 12 13 14 14 14 13 13 12 12 12 12 12 12 11 11 10 9 8 8 9 9 8 8 8 7 7 7 7 7 7 7 7 6 6 6 5 5 4 4 3 3 2 2 1 1 0
10 11 11 12 13 13 14 14 13 13 12 12 12 12 12 12 11 11 11 10 9 9 9 9 8 8 7 7 6 6 6 6 6 7 6 6 6 5 5 4 4 3 3 3 2 1 1 1 1
10 11 11 11 12 13 14 14 13 13 13 12 11 12 12 11 11 11 11 11 11 10 9 9 9 8 7 7 6 6 5 5 6 6 6 6 5 5 4 4 4 3 2 2 2 1 1 1 1
10 11 12 12 12 14 15 14 13 13 13 12 12 12 12 11 11 11 11 11 11 10 10 9 9 8 7 7 6 6 5 5 5 5 6 6 5 5 4 4 3 2 2 1 1 2 1 1 1
9 11 13 13 13 14 14 14 13 12 12 12 11 12 12 11 11 11 11 11 11 11 11 10 9 8 7 7 6 6 6 5 5 5 5 6 5 4 3 2 2 2 2 1 2 2 2 3 3
10 10 13 14 14 13 13 13 12 12 12 12 12 12 12 11 11 11 12 12 12 11 11 11 10 8 8 7 6 5 5 4 4 5 5 5 4 4 3 2 3 3 2 2 3 3 4 4 4
9 10 12 12 13 13 12 12 12 12 12 12 12 12 12 12 11 12 13 13 12 12 12 11 10 9 8 7 6 6 5 5 4 4 4 4 3 3 3 3 3 4 4 4 3 3 4 4 3
9 11 11 12 13 12 12 12 12 12 11 11 11 11 11 11 12 12 13 13 13 13 13 12 11 10 9 7 7 6 6 6 5 5 5 5 4 3 3 4 4 4 5 4 4 3 4 3 4
9 10 10 11 12 12 12 12 12 11 12 11 11 11 11 11 12 12 13 13 13 13 13 13 12 10 9 8 8 8 7 6 6 6 5 5 4 4 4 4 5 5 6 5 4 4 4 4 4
8 9 10 11 11 12 12 11 11 11 11 11 11 11 11 12 12 12 12 13 13 13 13 13 12 10 9 9 8 7 7 6 6 6 5 5 5 4 5 4 5 6 7 6 5 5 5 5 5
7 8 8 9 10 10 11 10 10 11 11 10 10 11 11 11 12 11 11 12 12 12 12 13 12 11 9 9 9 8 7 7 7 6 6 6 6 6 6 6 6 6 6 6 5 5 5 5 5
6 6 7 8 8 8 9 10 10 11 10 10 10 10 10 10 11 11 11 11 12 12 12 12 12 11 9 9 9 8 7 7 6 6 6 6 6 6 7 7 7 7 7 7 6 5 5 5 5
5 5 6 7 7 7 8 9 10 10 10 9 9 9 9 10 10 10 11 11 11 12 12 12 11 11 10 9 9 8 8 7 7 6 6 7 7 7 7 7 7 7 7 7 7 6 5 6 5
3 3 4 5 5 6 7 8 9 9 9 9 9 9 9 9 10 10 10 10 10 11 11 11 11 11 10 9 9 8 8 8 8 7 7 7 7 8 8 8 8 8 8 8 8 7 6 6 6
2 1 1 3 4 4 5 6 7 8 8 8 8 8 9 8 9 9 9 9 9 9 10 10 10 10 10 9 8 9 8 8 8 8 8 8 8 8 8 9 9 9 9 8 8 8 7 7 6
2 2 0 2 3 3 4 5 6 6 6 7 7 7 8 8 8 8 9 8 8 8 8 9 9 10 9 9 8 8 8 8 9 8 8 8 8 9 9 9 9 9 9 9 9 9 8 7 6
3 3 1 1 1 2 3 4 5 5 6 7 7 7 7 8 8 8 8 8 8 8 8 10 9 9 9 9 8 8 8 8 9 9 8 9 9 9 9 10 9 9 9 9 9 9 9 8 7
4 3 2 1 1 2 2 3 4 4 5 5 6 6 7 7 7 8 8 8 7 7 8 9 9 8 8 8 8 8 8 8 9 9 9 10 10 10 10 10 11 11 11 10 10 9 9 9 8
5 5 4 3 2 2 3 3 4 4 5 5 5 6 6 7 8 9 8 8 7 7 8 9 9 8 8 8 9 9 9 9 9 10 10 11 11 11 11 11 11 11 12 11 11 10 10 9 9
5 6 6 5 4 4 4 5 5 5 5 6 5 6 7 7 8 8 8 7 7 8 8 8 9 9 9 10 9 9 10 10 10 11 12 12 12 12 12 12 11 12 12 12 11 11 11 11 11
6 6 7 7 7 6 6 8 6 6 6 6 6 7 8 8 9 9 9 9 9 9 8 8 9 9 10 10 10 10 10 11 11 12 12 13 14 13 13 13 12 13 13 13 13 13 12 12 12
7 7 7 7 8 7 8 8 7 7 8 8 8 8 9 10 10 10 9 10 9 10 9 9 10 10 11 11 11 12 12 12 11 12 12 13 14 14 14 14 14 14 14 14 14 14 13 13 12
8 8 8 9 9 9 8 9 8 8 9 9 10 10 10 11 11 11 10 10 10 11 10 10 11 11 12 13 13 13 13 13 13 13 13 14 14 14 15 16 16 16 16 16 15 15 15 15 15
10 11 10 10 10 10 10 9 9 10 10 10 10 10 10 11 11 11 10 11 12 12 11 12 12 12 13 14 15 15 14 13 14 15 15 15 15 15 16 16 17 17 17 17 17 17 17 17 17
13 12 12 12 13 13 12 11 11 12 12 12 12 12 12 12 12 11 12 13 14 13 13 13 13 13 14 15 16 16 16 15 15 15 15 16 16 17 17 17 18 18 18 18 19 19 19 19 19
15 15 15 16 16 16 16 13 13 13 14 14 13 13 13 12 12 12 13 14 14 14 14 14 14 14 15 16 17 18 17 17 16 16 16 17 17 18 18 19 19 19 19 20 20 20 20 20 20
17 17 17 17 18 18 18 15 15 15 15 14 14 14 13 12 12 12 13 14 14 15 15 15 15 15 16 17 17 18 18 17 17 17 17 18 19 19 19 19 20 20 20 21 21 21 22 22 22
Wind_Direction
79 75 73 70 69 71 70 64 62 59 53 48 46 44 44 44 41 40 42 42 36 37 42 42 42 47 48 51 53 53 51 45 49 44 45 45 42 64 86 109 110 117 130 130 121 114 108 128 172
76 70 71 72 71 73 70 65 63 59 55 50 45 42 42 44 42 41 43 40 40 43 47 47 45 45 45 50 56 58 58 50 51 54 53 53 57 78 90 104 110 116 117 113 103 87 83 81 110
76 71 72 73 74 72 67 64 61 59 56 52 48 44 42 43 42 40 41 40 44 46 48 48 46 44 46 50 54 52 53 53 55 59 56 55 65 83 88 99 105 110 110 110 99 69 66 67 71
78 73 74 72 71 70 66 63 61 60 55 53 52 48 44 44 43 44 44 44 46 48 51 52 47 48 48 49 53 53 54 56 62 66 65 63 67 79 87 93 102 105 101 101 82 60 48 34 50
77 73 71 67 68 68 65 63 62 62 56 54 51 49 47 47 47 49 51 48 47 48 51 53 52 52 50 47 49 54 60 60 63 68 67 63 68 71 75 79 85 92 94 88 75 44 3 337 286
70 70 69 67 68 66 66 65 66 63 58 54 50 50 50 48 47 48 50 45 46 49 52 53 53 53 52 46 47 51 54 56 64 67 65 60 65 69 75 81 86 79 87 76 53 29 354 320 278
69 70 71 70 71 69 66 65 66 65 62 57 50 50 51 49 46 47 46 44 47 51 51 51 54 53 52 48 49 49 51 59 63 62 60 57 59 60 65 74 79 59 33 30 17 359 0 342 312
73 72 72 72 73 69 67 65 67 66 61 56 51 53 51 48 46 44 44 45 48 50 49 49 50 50 53 50 44 43 49 56 56 58 59 58 55 57 49 48 31 16 9 356 324 328 338 324 310
79 77 74 77 74 70 67 64 64 60 59 55 51 51 49 48 48 44 44 46 46 47 46 44 46 46 47 46 49 51 54 57 55 59 55 50 47 46 36 26 1 351 345 334 323 325 318 316 303
80 78 75 74 73 73 69 63 61 57 56 52 48 47 47 47 46 43 44 47 45 43 42 41 45 40 42 49 54 52 51 53 57 60 49 42 37 33 26 15 2 339 327 325 318 325 327 321 312
80 80 78 75 73 73 68 60 58 56 52 48 44 43 45 46 44 45 46 46 43 42 41 41 42 39 47 51 53 48 48 51 55 53 43 32 23 15 11 10 350 332 326 330 325 319 326 327 313
78 81 80 77 71 70 67 61 57 55 51 48 45 47 48 49 48 47 46 44 44 42 41 40 42 45 52 50 49 48 47 43 39 40 38 34 29 27 21 9 348 335 331 331 326 318 314 312 308
86 82 81 76 67 62 63 59 55 54 50 48 48 48 48 51 51 50 48 46 45 43 40 39 40 45 52 50 46 46 42 38 40 36 30 27 24 20 15 3 350 346 343 340 332 321 310 304 303
90 89 83 73 63 58 58 55 51 50 47 47 46 45 45 48 48 49 49 47 45 43 41 40 41 44 51 47 41 40 40 41 40 31 27 24 17 9 5 358 353 352 347 343 339 339 327 318 313
89 85 74 67 62 56 53 49 46 46 44 45 48 46 43 45 47 49 49 48 44 41 39 41 43 44 46 43 40 37 38 36 31 25 21 17 12 3 358 355 351 350 351 349 346 342 343 337 334
91 81 80 70 62 57 51 48 48 47 46 44 47 48 45 44 44 45 45 43 43 41 38 38 40 40 41 39 36 35 33 29 27 22 17 9 2 359 358 354 350 349 350 347 346 341 339 339 336
111 90 78 72 63 59 57 51 48 49 49 45 45 44 41 42 43 42 36 35 36 35 35 35 36 36 38 38 36 32 29 25 21 15 11 6 4 358 353 352 353 354 352 348 348 343 335 331 327
139 121 61 67 68 57 55 47 45 46 46 41 39 37 37 39 35 31 29 27 27 27 29 28 28 27 28 31 29 27 26 21 14 9 5 1 360 358 354 353 349 347 345 343 344 342 338 329 320
188 186 179 74 81 56 42 39 36 38 37 32 31 30 29 31 26 23 21 18 15 17 21 18 21 19 19 19 18 19 17 14 11 7 2 358 353 351 349 349 346 343 340 336 336 336 332 330 320
212 201 209 97 60 24 24 25 22 28 26 24 21 16 17 19 15 12 12 11 11 9 7 9 11 13 14 14 10 7 7 6 3 0 355 351 346 341 339 340 340 338 335 332 329 328 326 325 321
227 220 221 236 311 334 356 4 4 14 13 13 9 3 2 6 0 357 0 4 4 0 360 360 0 1 3 3 359 354 350 349 347 348 346 344 339 336 333 333 334 332 329 326 323 323 320 319 316
233 246 258 265 259 275 313 329 346 350 350 351 351 347 346 346 348 349 350 351 351 349 349 350 352 352 350 347 347 342 337 336 335 335 336 334 331 329 328 327 326 324 323 321 320 318 316 312 309
237 248 264 270 266 284 293 304 324 330 335 334 335 336 338 341 343 346 348 343 337 333 336 339 339 343 343 338 338 336 330 327 327 329 329 327 325 323 320 322 320 318 318 317 317 314 311 309 305
253 260 267 267 269 277 288 293 310 320 322 323 327 328 332 334 337 340 339 334 331 328 327 329 331 333 331 331 331 326 325 324 322 324 325 323 319 318 317 316 314 314 312 312 313 314 311 309 306
256 267 275 276 272 278 287 292 302 312 317 317 319 322 326 328 331 334 337 335 331 327 324 324 326 327 327 329 326 323 323 322 321 319 320 321 319 317 317 315 310 308 306 307 308 307 307 308 306
253 267 271 276 278 280 283 291 300 306 313 316 320 320 322 322 323 325 328 331 328 326 323 320 321 322 323 322 320 321 323 324 321 320 319 319 316 314 315 315 312 309 307 306 305 303 302 302 303
252 264 271 274 277 277 283 290 296 298 303 307 312 318 324 324 321 320 324 323 322 321 318 317 316 317 318 318 318 320 319 320 322 321 320 316 312 311 313 313 311 309 306 303 302 301 300 298 297
255 264 269 272 276 278 281 288 295 296 303 305 309 311 316 321 322 318 316 318 319 319 316 312 313 313 315 317 318 320 318 316 316 315 317 315 313 311 311 310 309 307 305 304 301 299 297 296 294
257 261 264 268 271 277 282 288 294 297 299 302 302 303 311 315 315 316 317 318 320 321 321 316 315 314 317 320 319 317 316 313 311 312 313 314 315 314 313 311 310 307 303 303 303 301 297 295 295
256 259 262 265 268 273 280 285 292 296 297 298 299 301 304 308 311 311 314 316 318 319 317 315 314 313 314 315 317 318 315 312 310 312 313 313 312 311 311 311 309 308 305 303 302 301 299 297 296
Height
5890 5890 5890 5890 5890 5889 5888 5887 5886 5886 5885 5885 5884 5883 5882 5882 5882 5883 5880 5878 5878 5877 5876 5875 5874 5873 5872 5872 5871 5871 5870 5870 5869 5869 5868 5868 5867 5866 5866 5866 5867 5867 5869 5871 5872 5873 5874 5874 5875
5892 5892 5893 5892 5891 5890 5890 5889 5888 5888 5887 5886 5885 5884 5884 5883 5882 5881 5880 5879 5879 5878 5877 5876 5875 5874 5873 5872 5872 5871 5871 5870 5870 5869 5869 5868 5867 5867 5867 5868 5868 5869 5871 5872 5873 5874 5874 5874 5875
5894 5894 5895 5894 5892 5892 5892 5890 5890 5889 5888 5887 5887 5886 5885 5884 5883 5882 5881 5880 5879 5879 5878 5877 5876 5874 5874 5873 5872 5872 5872 5871 5870 5870 5869 5869 5867 5868 5869 5869 5870 5871 5872 5873 5874 5874 5874 5875 5875
5896 5896 5896 5896 5894 5894 5893 5892 5891 5890 5890 5889 5888 5887 5886 5886 5885 5883 5882 5881 5880 5879 5878 5877 5876 5875 5874 5874 5873 5873 5872 5872 5871 5870 5870 5870 5870 5870 5871 5871 5872 5872 5873 5873 5874 5874 5874 5874 5874
5897 5897 5897 5896 5895 5895 5894 5893 5892 5892 5892 5891 5890 5889 5888 5887 5886 5885 5883 5882 5881 5880 5879 5878 5877 5876 5875 5874 5874 5873 5873 5873 5872 5872 5872 5872 5872 5872 5872 5872 5872 5873 5873 5874 5874 5874 5874 5874 5874
5900 5899 5899 5897 5897 5896 5895 5894 5894 5894 5893 5892 5892 5890 5889 5888 5887 5886 5884 5883 5882 5881 5880 5878 5877 5876 5876 5875 5874 5874 5874 5873 5873 5873 5873 5873 5873 5872 5872 5873 5873 5873 5874 5874 5874 5874 5873 5873 5873
5902 5901 5900 5899 5898 5898 5897 5896 5895 5895 5895 5894 5893 5892 5891 5890 5889 5887 5886 5884 5883 5882 5881 5879 5878 5877 5877 5876 5875 5874 5874 5874 5874 5874 5873 5873 5873 5873 5873 5873 5874 5874 5874 5873 5873 5873 5873 5873 5872
5903 5903 5902 5901 5900 5900 5899 5898 5897 5897 5896 5896 5895 5893 5892 5892 5890 5889 5887 5885 5884 5883 5882 5880 5879 5878 5877 5877 5876 5875 5875 5875 5875 5874 5874 5874 5874 5874 5874 5874 5874 5874 5874 5873 5873 5873 5873 5872 5871
5904 5905 5903 5902 5902 5901 5900 5900 5899 5898 5898 5897 5896 5895 5894 5893 5892 5890 5889 5887 5886 5884 5883 5882 5881 5879 5879 5878 5877 5876 5876 5876 5875 5875 5875 5875 5874 5874 5874 5874 5874 5874 5873 5873 5873 5872 5872 5871 5871
5906 5905 5904 5904 5903 5903 5902 5901 5901 5900 5899 5898 5897 5897 5896 5895 5893 5892 5890 5888 5887 5886 5884 5883 5882 5880 5879 5878 5878 5877 5877 5876 5876 5876 5876 5875 5875 5875 5875 5874 5874 5873 5873 5873 5872 5871 5871 5870 5870
5907 5907 5906 5906 5905 5904 5904 5903 5902 5901 5901 5900 5899 5898 5897 5896 5895 5893 5892 5890 5888 5887 5885 5884 5883 5881 5880 5879 5878 5878 5877 5877 5877 5876 5876 5876 5876 5875 5875 5874 5874 5873 5873 5872 5871 5871 5870 5870 5869
5909 5909 5908 5907 5907 5906 5905 5905 5904 5903 5903 5902 5901 5899 5898 5897 5896 5895 5893 5891 5890 5888 5887 5885 5884 5882 5881 5880 5880 5879 5878 5878 5877 5877 5877 5877 5876 5876 5876 5875 5874 5873 5872 5871 5871 5870 5870 5869 5869
5911 5910 5909 5909 5909 5908 5907 5906 5906 5905 5904 5903 5902 5900 5899 5898 5897 5896 5895 5893 5891 5890 5888 5887 5885 5883 5883 5882 5881 5880 5880 5879 5878 5878 5877 5877 5877 5876 5876 5875 5874 5873 5872 5871 5870 5869 5869 5868 5868
5911 5911 5911 5911 5910 5910 5909 5908 5908 5906 5905 5904 5903 5902 5901 5899 5898 5897 5896 5894 5893 5891 5890 5888 5886 5885 5884 5883 5882 5881 5881 5880 5879 5879 5878 5878 5877 5876 5875 5875 5874 5873 5872 5871 5870 5869 5868 5867 5867
5913 5913 5913 5912 5911 5911 5911 5910 5909 5908 5907 5906 5904 5903 5902 5901 5900 5899 5897 5896 5895 5893 5891 5889 5888 5886 5885 5884 5884 5883 5882 5881 5880 5879 5879 5878 5877 5876 5875 5875 5874 5873 5872 5870 5869 5868 5868 5867 5866
5913 5914 5914 5913 5912 5912 5913 5912 5910 5909 5908 5907 5906 5905 5904 5902 5901 5900 5899 5897 5896 5894 5893 5891 5889 5888 5886 5886 5885 5884 5883 5882 5881 5880 5879 5879 5878 5877 5876 5875 5873 5872 5871 5870 5869 5868 5867 5866 5865
5914 5914 5914 5914 5913 5913 5913 5912 5911 5910 5909 5908 5907 5906 5905 5904 5902 5901 5900 5898 5897 5896 5894 5892 5890 5889 5888 5887 5886 5885 5884 5883 5882 5881 5880 5879 5878 5877 5876 5875 5873 5872 5871 5869 5868 5867 5866 5865 5865
5915 5915 5915 5914 5914 5914 5913 5912 5911 5910 5909 5909 5908 5906 5905 5904 5903 5902 5900 5899 5898 5896 5895 5893 5892 5890 5889 5888 5887 5886 5884 5883 5882 5881 5880 5879 5878 5877 5876 5874 5873 5872 5870 5869 5868 5866 5865 5864 5863
5915 5915 5915 5915 5914 5914 5913 5912 5911 5910 5910 5909 5908 5907 5906 5905 5904 5902 5901 5900 5898 5897 5895 5894 5892 5891 5890 5888 5887 5886 5885 5884 5883 5882 5881 5879 5878 5877 5875 5874 5873 5871 5870 5869 5867 5866 5865 5864 5862
5915 5915 5915 5915 5914 5914 5913 5913 5912 5911 5910 5909 5908 5907 5906 5905 5904 5903 5901 5900 5898 5897 5895 5894 5892 5891 5890 5889 5888 5887 5885 5884 5883 5882 5880 5879 5877 5876 5875 5873 5872 5870 5869 5868 5866 5865 5864 5862 5861
5915 5915 5915 5915 5915 5914 5914 5913 5912 5911 5910 5910 5908 5907 5906 5905 5904 5902 5901 5899 5898 5897 5895 5894 5892 5891 5890 5889 5888 5886 5885 5884 5883 5881 5880 5878 5877 5875 5874 5872 5871 5870 5868 5866 5865 5864 5862 5861 5860
5914 5915 5915 5915 5914 5914 5914 5913 5913 5911 5910 5909 5908 5907 5906 5904 5903 5901 5900 5899 5898 5896 5895 5893 5892 5891 5889 5888 5887 5886 5884 5883 5882 5880 5879 5877 5875 5874 5872 5871 5869 5868 5866 5865 5863 5862 5861 5859 5858
5913 5914 5914 5914 5914 5914 5913 5913 5913 5911 5910 5909 5908 5907 5905 5904 5902 5901 5899 5898 5897 5896 5894 5893 5891 5890 5888 5887 5885 5884 5883 5882 5880 5879 5877 5875 5874 5872 5871 5869 5867 5866 5864 5863 5861 5860 5859 5857 5856
5912 5912 5913 5913 5913 5913 5913 5912 5912 5910 5910 5909 5907 5906 5905 5903 5901 5900 5899 5897 5896 5894 5893 5891 5890 5889 5887 5885 5884 5883 5881 5880 5878 5877 5875 5873 5871 5870 5868 5866 5865 5863 5862 5860 5859 5858 5856 5855 5853
5911 5912 5912 5911 5911 5912 5912 5911 5911 5910 5909 5908 5907 5905 5904 5902 5900 5899 5897 5896 5894 5893 5891 5890 5889 5887 5885 5883 5882 5881 5879 5877 5875 5874 5873 5871 5869 5867 5865 5864 5862 5861 5859 5857 5856 5855 5853 5852 5851
5910 5910 5911 5911 5910 5911 5910 5910 5910 5909 5907 5906 5906 5904 5903 5901 5899 5897 5896 5895 5893 5891 5889 5888 5887 5885 5883 5882 5880 5878 5876 5875 5873 5871 5870 5868 5866 5864 5862 5861 5859 5857 5856 5854 5853 5851 5850 5849 5847
5907 5908 5909 5909 5908 5909 5908 5909 5908 5907 5906 5905 5904 5902 5901 5899 5897 5896 5894 5893 5891 5889 5887 5885 5884 5882 5881 5879 5877 5875 5874 5872 5870 5868 5866 5865 5863 5861 5859 5857 5855 5854 5852 5850 5849 5847 5846 5844 5843
5905 5906 5907 5906 5906 5906 5906 5906 5906 5905 5904 5903 5902 5900 5899 5897 5896 5894 5893 5891 5889 5886 5884 5883 5881 5880 5878 5876 5875 5873 5871 5869 5867 5865 5863 5861 5859 5857 5855 5854 5852 5850 5848 5846 5844 5843 5841 5840 5838
5903 5903 5903 5903 5903 5903 5903 5906 5904 5902 5901 5900 5899 5898 5897 5895 5894 5892 5890 5888 5886 5884 5882 5880 5879 5877 5876 5873 5872 5869 5867 5865 5864 5862 5860 5858 5856 5854 5852 5849 5847 5845 5843 5842 5840 5838 5836 5835 5833
5899 5899 5900 5901 5900 5900 5899 5903 5900 5899 5898 5897 5896 5895 5894 5893 5891 5889 5888 5886 5884 5882 5880 5878 5876 5874 5873 5870 5868 5866 5864 5862 5860 5858 5856 5854 5852 5850 5847 5845 5843 5841 5839 5837 5835 5833 5831 5829 5827